ROMMA est une association bénévole à but non lucratif. Votre soutien est indispensable : ADHERER à ROMMA ou FAIRE un DON

Lyon - (69, Rhône)

Plaine lyonnaise (169 m)   Longitude: 04° 49' 55" E   Latitude: 45° 43' 50" N Station partenaire n°124
 

Détail journalier du     <<     >>

Température Precipitation Humidité Pression Vent Dir Rafale Dir. rafale Ensol.
Heure (°C) (mm) (%) (hPa) (km/h) (km/h) (min)
01:00 14.306610196N32N0
02:00 13.506810199N26N0
03:00 12.707110209N24N0
04:00 11.907210198N21N0
05:00 11.107410198N26N0
06:00 10.307710186N16N0
07:00 10.007810196N16N0
08:00 9.707910198N19N0
09:00 10.107610197N24N0
10:00 12.107110197N18N50
11:00 13.606510198N21N60
12:00 14.805610198N21N60
13:00 15.705010199N24NE60
14:00 16.804510189N26N60
15:00 17.204310188N23N60
16:00 17.803810179N21NE60
17:00 17.104210176N21N0
18:00 16.604410176N18N30
19:00 15.704810176N18N0
20:00 14.705010175N13N0
21:00 13.205810174NO13NO0
22:00 11.406810172NO8NO0
23:00 9.707510172O5NO0
minuit 8.708010173O6O0

Graphique du 03-10-2019

 

Serveur OMMA